Home   Weather   Alsfeld   Past weeks

Flag for Germany Past Weather in Alsfeld, Hesse, Germany — Yesterday and Last 2 Weeks

Now
28 °F

Snow flurries. Overcast.


Feels Like: 28 °F
Forecast: 16 / 31 °F
Wind: 1 mph from Northwest

Location: Fritzlar

Current Time: Jan 24, 2017 at 10:34:12 am

Latest Report: Jan 24, 2017 at 9:00 am


Visibility: 2 mi

Pressure: 30.38 "Hg

Humidity: 93%

Dew Point: 26 °F

Location of AlsfeldLocation

Past Weather in Alsfeld — Graph

°F

Alsfeld Temperature Yesterday

Maximum temperature yesterday: 27 °F (at 11:00 pm)
Minimum temperature yesterday: 8 °F (at 6:00 am)
Average temperature yesterday: 16 °F

High & Low Weather Summary for the Past Weeks

 TemperatureHumidityPressure
High40 °F (Jan 11, 11:00 pm)95% (Jan 13, 12:00 am)30.76 "Hg (Jan 13, 12:00 am)
Low8 °F (Jan 23, 6:00 am)51% (Jan 21, 3:00 pm)29.00 "Hg (Jan 13, 3:00 am)
Average28 °F82%30.22 "Hg
* Reported Jan 9 9:00 am — Jan 24 9:00 am, Alsfeld, Weather by CustomWeather, © 2017

Note: Actual official high and low records may vary slightly from our data, if they occured in-between our weather recording intervals... More about our weather records

Advertising

Alsfeld Weather History for the Previous 24 Hours

Scroll right to see more
 ConditionsComfort  
Time TempWeatherWind HumidityBarometerVisibility
9:00 am
Tue, Jan 24
28 °FSnow flurries. Overcast.1 mph93%30.38 "Hg2 mi
8:00 am28 °FOvercast.1 mph93%30.36 "Hg2 mi
6:00 am27 °FSnow flurries. Low clouds.1 mph93%30.33 "Hg2 mi
5:00 am27 °FSnow flurries. Low clouds.No wind94%30.33 "Hg2 mi
3:00 am27 °FFog.1 mph94%30.34 "Hg2 mi
2:00 am26 °FFog.1 mph94%30.34 "Hg2 mi
12:00 am26 °FFog.1 mph94%30.34 "Hg2 mi
11:00 pm
Mon, Jan 23
27 °FFog.2 mph94%30.34 "Hg2 mi
9:00 pm26 °FLow clouds.1 mph94%30.33 "Hg2 mi
8:00 pm25 °FSnow flurries. Low clouds.1 mph94%30.34 "Hg1 mi
6:00 pm23 °FFog.1 mph91%30.34 "Hg2 mi
5:00 pm23 °FFog.2 mph89%30.34 "Hg2 mi
3:00 pm21 °FFog.1 mph88%30.34 "Hg2 mi
2:00 pm19 °FFog.N/A88%30.35 "Hg3 mi
12:00 pm16 °FSnow flurries. Low clouds.No wind86%30.37 "Hg2 mi
11:00 am14 °FSnow flurries. Low clouds.No wind87%30.38 "Hg2 mi
Weather by CustomWeather, © 2017

See weather overviewHow to use our weather pages